Flag for Kazakhstan Weather past 2 weeks in Aqtobe, Kazakhstan

Now
64 °F

Clear.


Feels Like: 64 °F
Forecast: 62 / 84 °F
Wind: 15 mph from Southwest

Location: Aktjubinsk

Current Time: May 25, 2015 at 3:37:20 AM

Latest Report: May 25, 2015 at 2:30 AM


Visibility: 10 mi

Pressure: 30.04 "Hg

Humidity: 56%

Dew point: 48 °F

Location of AqtobeLocation

Historic Weather in Aqtobe — Graph

°F

Aqtobe temperature yesterday

Maximum temperature yesterday: 81 °F (at 2:30 PM)
Minimum temperature yesterday: 52 °F (at 12:00 AM)
Average temperature yesterday: 67 °F

Past Weeks' High & Low Weather Summary

 TemperatureHumidityPressure
High81 °F (May 24, 2:30 PM)100% (May 10, 1:30 AM)30.27 "Hg (May 10, 1:30 AM)
Low36 °F (May 11, 5:30 AM)22% (May 22, 6:30 PM)29.59 "Hg (May 17, 4:30 AM)
Average54 °F75%29.89 "Hg
* Reported May 10 1:00 AM — May 25 1:30 AM, Aqtobe, Weather by CustomWeather, © 2015

Note: Actual official high and low records may vary slightly from our data, if they occured in-between our weather recording intervals... More about our weather records

Advertising

Aqtobe weather history for previous 24 hours

 ConditionsComfort  
Time TempWeatherWind HumidityBarometerVisibility
1:30 AM
Mon, May 25
64 °FClear.13 mph60%30.04 "Hg10 mi
1:00 AM64 °FClear.15 mph60%30.04 "Hg10 mi
12:30 AM66 °FClear.13 mph60%30.04 "Hg10 mi
12:00 AM68 °FClear.15 mph56%30.04 "Hg10 mi
11:30 PM
Sun, May 24
68 °FClear.15 mph56%30.04 "Hg10 mi
11:00 PM66 °FClear.13 mph64%30.04 "Hg10 mi
10:30 PM66 °FClear.10 mph64%30.04 "Hg10 mi
10:00 PM66 °FClear.10 mph64%30.04 "Hg10 mi
9:30 PM70 °FClear.10 mph57%30.04 "Hg10 mi
9:00 PM72 °FSunny.10 mph53%30.04 "Hg10 mi
8:30 PM73 °FSunny.8 mph50%30.04 "Hg10 mi
8:00 PM75 °FSunny.8 mph47%30.04 "Hg10 mi
7:30 PM77 °FSunny.10 mph42%30.04 "Hg10 mi
7:00 PM79 °FSunny.13 mph37%30.04 "Hg10 mi
6:30 PM79 °FSunny.13 mph34%30.04 "Hg10 mi
6:00 PM81 °FSunny.15 mph32%30.04 "Hg10 mi
5:30 PM81 °FSunny.17 mph32%30.04 "Hg10 mi
5:00 PM81 °FSunny.20 mph32%30.04 "Hg10 mi
4:30 PM81 °FSunny.17 mph30%30.04 "Hg10 mi
4:00 PM81 °FSunny.17 mph32%30.04 "Hg10 mi
3:30 PM81 °FSunny.15 mph34%30.07 "Hg10 mi
3:00 PM81 °FSunny.15 mph34%30.07 "Hg10 mi
2:30 PM81 °FSunny.17 mph34%30.07 "Hg10 mi
2:00 PM79 °FSunny.17 mph37%30.07 "Hg10 mi
1:30 PM79 °FSunny.20 mph37%30.07 "Hg10 mi
1:00 PM77 °FSunny.17 mph36%30.07 "Hg10 mi
12:30 PM77 °FSunny.15 mph36%30.07 "Hg10 mi
12:00 PM75 °FSunny.15 mph39%30.09 "Hg10 mi
11:30 AM73 °FSunny.17 mph41%30.09 "Hg10 mi
11:00 AM73 °FSunny.17 mph38%30.07 "Hg10 mi
10:30 AM72 °FSunny.15 mph41%30.09 "Hg10 mi
10:00 AM70 °FSunny.15 mph40%30.09 "Hg10 mi
9:30 AM68 °FSunny.13 mph43%30.09 "Hg10 mi
9:00 AM66 °FSunny.8 mph49%30.09 "Hg10 mi
8:30 AM64 °FSunny.15 mph49%30.09 "Hg10 mi
8:00 AM61 °FSunny.10 mph55%30.09 "Hg10 mi
7:30 AM59 °FPassing clouds.3 mph59%30.09 "HgN/A
7:00 AM59 °FSunny.1 mph63%30.09 "Hg10 mi
6:30 AM55 °FSunny.3 mph67%30.09 "Hg10 mi
6:00 AM55 °FSunny.No wind63%30.09 "Hg10 mi
5:30 AM54 °FSunny.3 mph67%30.07 "Hg10 mi
5:00 AM54 °FClear.8 mph67%30.07 "Hg10 mi
4:30 AM54 °FClear.6 mph67%30.07 "Hg10 mi
4:00 AM54 °FClear.1 mph67%30.07 "Hg10 mi
3:30 AM54 °FClear.1 mph67%30.07 "Hg10 mi
3:00 AM52 °FClear.1 mph72%30.07 "Hg10 mi
Weather by CustomWeather, © 2015

See weather overviewHow to use our weather pages